Torna al catalogo

FENGYUN 1C DEB

AttivoPO
NORAD 30221·DEBRIS·🇨🇳 China

Lanciato May 10, 1999 da Taiyuan Satellite Launch Center

Loading…

Prossimi Passaggi (prossime 24 ore)

TLE

AggiornatoSource: Space-Track

Epoca: Sep 14, 2026, 13:25 UTC

1 30221U 99025WE  26257.55912162  .00000435  00000-0  12119-3 0  9995
2 30221  98.9583   5.6216 0142742 297.8085  60.8698 14.46340232 33889

Traccia FENGYUN 1C DEB in tempo reale con AllMySat

Download on the App Store